Tracking 27419 objects as of 9-Jun-2023
HD Live streaming from Space Station
objects crossing your sky now

DELTA 1 DEB

Track DELTA 1 DEB now!
10-day predictions


NORAD ID: 7030
Int'l Code: 1973-086W
Perigee: 1,511.0 km
Apogee: 1,653.8 km
Inclination: 102.0 °
Period: 117.6 minutes
Semi major axis: 7953 km
RCS: 0.058 m2 (small)
Launch date: November 6, 1973
Source: United States (US)
Launch site: AIR FORCE WESTERN TEST RANGE (AFWTR)

Note: This is SATELLITE DEBRIS
Your satellite tracking list
Your tracking list is empty




NASA's NSSDC Master Catalog

Two Line Element Set (TLE):
1 07030U 73086W   23159.57060010 -.00000040  00000-0  22274-4 0  9999
2 07030 101.9568 190.4177 0089812  22.3975 132.5254 12.23978783214499
Source of the keplerian elements: AFSPC